Time,TemperatureF,DewpointF,PressureIn,WindDirection,WindDirectionDegrees,WindSpeedMPH,WindSpeedGustMPH,Humidity,HourlyPrecipIn,Conditions,Clouds,dailyrainin,SoftwareType,DateUTC
2013-08-09 00:01:00,75.0,73.0,30.04,South,179,0.0,6.0,92,0.02,,,0.02,,2013-08-09 04:01:00,
2013-08-09 00:12:00,75.0,73.0,30.04,South,179,0.0,6.0,92,0.02,,,0.02,,2013-08-09 04:12:00,
2013-08-09 00:22:00,75.0,73.0,30.03,SW,218,2.0,7.0,92,0.00,,,0.02,,2013-08-09 04:22:00,
2013-08-09 00:33:00,75.0,73.0,30.03,SW,218,2.0,7.0,92,0.00,,,0.02,,2013-08-09 04:33:00,
2013-08-09 00:43:00,75.0,73.0,30.03,SW,218,2.0,7.0,92,0.00,,,0.02,,2013-08-09 04:43:00,
2013-08-09 00:53:00,75.0,73.0,30.02,SW,218,0.0,4.0,93,0.00,,,0.02,,2013-08-09 04:53:00,
2013-08-09 01:02:00,75.0,73.0,30.02,SW,218,0.0,4.0,93,0.00,,,0.02,,2013-08-09 05:02:00,
2013-08-09 01:12:00,75.0,73.0,30.02,SW,218,0.0,4.0,93,0.00,,,0.02,,2013-08-09 05:12:00,
2013-08-09 01:22:00,75.0,73.0,30.01,SSW,208,2.0,6.0,93,0.00,,,0.02,,2013-08-09 05:22:00,
2013-08-09 01:33:00,75.0,73.0,30.01,SSW,208,2.0,6.0,93,0.00,,,0.02,,2013-08-09 05:33:00,
2013-08-09 01:43:00,75.0,73.0,30.01,SSW,208,2.0,6.0,93,0.00,,,0.02,,2013-08-09 05:43:00,
2013-08-09 01:52:00,75.0,73.0,30.01,SW,218,0.0,8.0,93,0.00,,,0.02,,2013-08-09 05:52:00,
2013-08-09 02:01:00,75.0,73.0,30.01,SW,218,0.0,8.0,93,0.00,,,0.02,,2013-08-09 06:01:00,
2013-08-09 02:11:00,75.0,73.0,30.01,SW,218,0.0,8.0,93,0.00,,,0.02,,2013-08-09 06:11:00,
2013-08-09 02:22:00,74.0,72.0,30.00,SW,217,0.0,3.0,94,0.00,,,0.02,,2013-08-09 06:22:00,
2013-08-09 02:32:00,74.0,72.0,30.00,SW,217,0.0,3.0,94,0.00,,,0.02,,2013-08-09 06:32:00,
2013-08-09 02:43:00,74.0,72.0,30.00,SW,217,0.0,3.0,94,0.00,,,0.02,,2013-08-09 06:43:00,
2013-08-09 02:52:00,74.0,73.0,29.99,SW,217,0.0,0.0,96,0.00,,,0.02,,2013-08-09 06:52:00,
2013-08-09 03:01:00,74.0,73.0,29.99,SW,217,0.0,0.0,96,0.00,,,0.02,,2013-08-09 07:01:00,
2013-08-09 03:12:00,74.0,73.0,29.99,SW,217,0.0,0.0,96,0.00,,,0.02,,2013-08-09 07:12:00,
2013-08-09 03:22:00,74.0,73.0,29.98,SW,217,0.0,0.0,96,0.00,,,0.02,,2013-08-09 07:22:00,
2013-08-09 03:33:00,74.0,73.0,29.98,SW,217,0.0,0.0,96,0.00,,,0.02,,2013-08-09 07:33:00,
2013-08-09 03:43:00,74.0,73.0,29.98,SW,217,0.0,0.0,96,0.00,,,0.02,,2013-08-09 07:43:00,
2013-08-09 03:53:00,73.0,72.0,29.98,SW,216,0.0,1.0,97,0.00,,,0.02,,2013-08-09 07:53:00,
2013-08-09 04:02:00,73.0,72.0,29.98,SW,216,0.0,1.0,97,0.00,,,0.02,,2013-08-09 08:02:00,
2013-08-09 04:12:00,73.0,72.0,29.98,SW,216,0.0,1.0,97,0.00,,,0.02,,2013-08-09 08:12:00,
2013-08-09 04:22:00,73.0,72.0,29.98,SW,216,0.0,0.0,98,0.00,,,0.02,,2013-08-09 08:22:00,
2013-08-09 04:32:00,73.0,72.0,29.98,SW,216,0.0,0.0,98,0.00,,,0.02,,2013-08-09 08:32:00,
2013-08-09 04:43:00,73.0,72.0,29.98,SW,216,0.0,0.0,98,0.00,,,0.02,,2013-08-09 08:43:00,
2013-08-09 04:53:00,73.0,72.0,29.97,SW,216,0.0,1.0,98,0.00,,,0.02,,2013-08-09 08:53:00,
2013-08-09 05:00:00,73.0,73.0,29.96,SW,216,0.0,0.0,99,0.00,,,0.02,,2013-08-09 09:00:00,
2013-08-09 05:02:00,73.0,72.0,29.97,SW,216,0.0,1.0,98,0.00,,,0.02,,2013-08-09 09:02:00,
2013-08-09 05:12:00,73.0,72.0,29.97,SW,216,0.0,1.0,98,0.00,,,0.02,,2013-08-09 09:12:00,
2013-08-09 05:22:00,73.0,73.0,29.96,SW,216,0.0,0.0,99,0.00,,,0.02,,2013-08-09 09:22:00,
2013-08-09 05:32:00,73.0,73.0,29.96,SW,216,0.0,0.0,99,0.00,,,0.02,,2013-08-09 09:32:00,
2013-08-09 05:43:00,73.0,73.0,29.96,SW,216,0.0,0.0,99,0.00,,,0.02,,2013-08-09 09:43:00,
2013-08-09 05:52:00,73.0,73.0,29.96,SW,216,0.0,0.0,99,0.00,,,0.02,,2013-08-09 09:52:00,
2013-08-09 06:22:00,73.0,73.0,29.95,SW,216,0.0,0.0,100,0.00,,,0.02,,2013-08-09 10:22:00,
2013-08-09 06:32:00,73.0,73.0,29.95,SW,216,0.0,0.0,100,0.00,,,0.02,,2013-08-09 10:32:00,
2013-08-09 06:43:00,73.0,73.0,29.95,SW,216,0.0,0.0,100,0.00,,,0.02,,2013-08-09 10:43:00,
2013-08-09 06:53:00,73.0,73.0,29.94,SW,216,0.0,1.0,100,0.02,,,0.04,,2013-08-09 10:53:00,
2013-08-09 07:02:00,73.0,73.0,29.94,SW,216,0.0,1.0,100,0.02,,,0.04,,2013-08-09 11:02:00,
2013-08-09 07:11:00,73.0,73.0,29.94,SW,216,0.0,1.0,100,0.02,,,0.04,,2013-08-09 11:11:00,
2013-08-09 07:22:00,73.0,73.0,29.93,SW,216,0.0,0.0,100,0.02,,,0.04,,2013-08-09 11:22:00,
2013-08-09 07:31:00,73.0,73.0,29.93,SW,216,0.0,0.0,100,0.01,,,0.05,,2013-08-09 11:31:00,
2013-08-09 07:33:00,73.0,73.0,29.93,SW,216,0.0,0.0,100,0.02,,,0.04,,2013-08-09 11:33:00,
2013-08-09 07:43:00,73.0,73.0,29.93,SW,216,0.0,0.0,100,0.02,,,0.04,,2013-08-09 11:43:00,
2013-08-09 07:53:00,73.0,73.0,29.93,SW,216,0.0,0.0,100,0.01,,,0.05,,2013-08-09 11:53:00,
2013-08-09 08:02:00,73.0,73.0,29.93,SW,216,0.0,0.0,100,0.01,,,0.05,,2013-08-09 12:02:00,
2013-08-09 08:12:00,73.0,73.0,29.93,SW,216,0.0,0.0,100,0.01,,,0.05,,2013-08-09 12:12:00,
2013-08-09 08:22:00,73.0,73.0,29.93,SW,216,0.0,0.0,100,0.01,,,0.05,,2013-08-09 12:22:00,
2013-08-09 08:52:00,74.0,74.0,29.93,SW,217,0.0,3.0,100,0.09,,,0.14,,2013-08-09 12:52:00,
2013-08-09 09:01:00,74.0,74.0,29.93,SW,217,0.0,3.0,100,0.09,,,0.14,,2013-08-09 13:01:00,
2013-08-09 09:12:00,74.0,74.0,29.93,SW,217,0.0,3.0,100,0.09,,,0.14,,2013-08-09 13:12:00,
2013-08-09 09:23:00,75.0,75.0,29.93,SW,229,3.0,7.0,100,0.19,,,0.24,,2013-08-09 13:23:00,
2013-08-09 09:32:00,75.0,75.0,29.93,SW,229,3.0,7.0,100,0.19,,,0.24,,2013-08-09 13:32:00,
2013-08-09 09:43:00,75.0,75.0,29.93,SW,229,3.0,7.0,100,0.19,,,0.24,,2013-08-09 13:43:00,
2013-08-09 09:52:00,76.0,76.0,29.93,WSW,245,2.0,8.0,99,0.10,,,0.24,,2013-08-09 13:52:00,
2013-08-09 10:02:00,76.0,76.0,29.93,WSW,245,2.0,8.0,99,0.10,,,0.24,,2013-08-09 14:02:00,
2013-08-09 10:11:00,76.0,76.0,29.93,WSW,245,2.0,8.0,99,0.10,,,0.24,,2013-08-09 14:11:00,
2013-08-09 10:33:00,76.0,75.0,29.93,WSW,241,1.0,9.0,97,0.00,,,0.24,,2013-08-09 14:33:00,
2013-08-09 10:43:00,76.0,75.0,29.93,WSW,241,1.0,9.0,97,0.00,,,0.24,,2013-08-09 14:43:00,
2013-08-09 10:53:00,77.0,75.0,29.94,WSW,237,5.0,10.0,95,0.00,,,0.24,,2013-08-09 14:53:00,
2013-08-09 11:02:00,77.0,75.0,29.94,WSW,237,5.0,10.0,95,0.00,,,0.24,,2013-08-09 15:02:00,
2013-08-09 11:12:00,77.0,75.0,29.94,WSW,237,5.0,10.0,95,0.00,,,0.24,,2013-08-09 15:12:00,
2013-08-09 11:33:00,78.0,75.0,29.94,SW,225,2.0,11.0,92,0.00,,,0.24,,2013-08-09 15:33:00,
2013-08-09 11:44:00,78.0,75.0,29.94,SW,225,2.0,11.0,92,0.00,,,0.24,,2013-08-09 15:44:00,
2013-08-09 11:53:00,79.0,76.0,29.93,WSW,249,1.0,6.0,91,0.00,,,0.24,,2013-08-09 15:53:00,
2013-08-09 12:02:00,79.0,76.0,29.93,WSW,249,1.0,6.0,91,0.00,,,0.24,,2013-08-09 16:02:00,
2013-08-09 12:11:00,79.0,76.0,29.93,WSW,249,1.0,6.0,91,0.00,,,0.24,,2013-08-09 16:11:00,
2013-08-09 12:22:00,80.0,75.0,29.93,SW,234,1.0,7.0,86,0.00,,,0.24,,2013-08-09 16:22:00,
2013-08-09 12:32:00,80.0,75.0,29.93,SW,234,1.0,7.0,86,0.00,,,0.24,,2013-08-09 16:32:00,
2013-08-09 12:43:00,80.0,75.0,29.93,SW,234,1.0,7.0,86,0.00,,,0.24,,2013-08-09 16:43:00,
2013-08-09 12:53:00,80.0,75.0,29.94,SW,233,6.0,6.0,86,0.00,,,0.24,,2013-08-09 16:53:00,
2013-08-09 13:02:00,80.0,75.0,29.94,SW,233,6.0,6.0,86,0.00,,,0.24,,2013-08-09 17:02:00,
2013-08-09 13:11:00,80.0,75.0,29.94,SW,233,6.0,6.0,86,0.00,,,0.24,,2013-08-09 17:11:00,
2013-08-09 13:22:00,81.0,76.0,29.93,SW,226,2.0,10.0,85,0.00,,,0.24,,2013-08-09 17:22:00,
2013-08-09 13:33:00,81.0,76.0,29.93,SW,226,2.0,10.0,85,0.00,,,0.24,,2013-08-09 17:33:00,
2013-08-09 13:43:00,81.0,76.0,29.93,SW,226,2.0,10.0,85,0.00,,,0.24,,2013-08-09 17:43:00,
2013-08-09 13:52:00,83.0,77.0,29.92,WNW,286,0.0,10.0,83,0.00,,,0.24,,2013-08-09 17:52:00,
2013-08-09 14:01:00,83.0,77.0,29.92,WNW,286,0.0,10.0,83,0.00,,,0.24,,2013-08-09 18:01:00,
2013-08-09 14:11:00,83.0,77.0,29.92,WNW,286,0.0,10.0,83,0.00,,,0.24,,2013-08-09 18:11:00,
2013-08-09 14:22:00,85.0,77.0,29.91,SSW,207,5.0,10.0,78,0.00,,,0.24,,2013-08-09 18:22:00,
2013-08-09 14:32:00,85.0,77.0,29.91,SSW,207,5.0,10.0,78,0.00,,,0.24,,2013-08-09 18:32:00,
2013-08-09 14:43:00,85.0,77.0,29.91,SSW,207,5.0,10.0,78,0.00,,,0.24,,2013-08-09 18:43:00,
2013-08-09 14:53:00,86.0,77.0,29.91,West,279,0.0,11.0,75,0.00,,,0.24,,2013-08-09 18:53:00,
2013-08-09 15:02:00,86.0,77.0,29.91,West,279,0.0,11.0,75,0.00,,,0.24,,2013-08-09 19:02:00,
2013-08-09 15:11:00,86.0,77.0,29.91,West,279,0.0,11.0,75,0.00,,,0.24,,2013-08-09 19:11:00,
2013-08-09 15:32:00,85.0,78.0,29.91,SW,228,0.0,9.0,80,0.00,,,0.24,,2013-08-09 19:32:00,
2013-08-09 15:43:00,85.0,78.0,29.91,SW,228,0.0,9.0,80,0.00,,,0.24,,2013-08-09 19:43:00,
2013-08-09 15:52:00,84.0,77.0,29.90,NNE,20,0.0,6.0,80,0.00,,,0.24,,2013-08-09 19:52:00,
2013-08-09 16:02:00,84.0,77.0,29.90,NNE,20,0.0,6.0,80,0.00,,,0.24,,2013-08-09 20:02:00,
2013-08-09 16:11:00,84.0,77.0,29.90,NNE,20,0.0,6.0,80,0.00,,,0.24,,2013-08-09 20:11:00,
2013-08-09 16:22:00,83.0,76.0,29.91,North,358,8.0,9.0,80,0.00,,,0.24,,2013-08-09 20:22:00,
2013-08-09 16:32:00,83.0,76.0,29.91,North,358,8.0,9.0,80,0.00,,,0.24,,2013-08-09 20:32:00,
2013-08-09 16:43:00,83.0,76.0,29.91,North,358,8.0,9.0,80,0.00,,,0.24,,2013-08-09 20:43:00,
2013-08-09 16:52:00,77.0,74.0,29.91,SW,231,0.0,10.0,92,0.36,,,0.60,,2013-08-09 20:52:00,
2013-08-09 17:01:00,77.0,74.0,29.91,SW,231,0.0,10.0,92,0.36,,,0.60,,2013-08-09 21:01:00,
2013-08-09 17:12:00,77.0,74.0,29.91,SW,231,0.0,10.0,92,0.36,,,0.60,,2013-08-09 21:12:00,
2013-08-09 17:22:00,79.0,76.0,29.91,SSW,205,0.0,5.0,92,0.36,,,0.60,,2013-08-09 21:22:00,
2013-08-09 17:33:00,79.0,76.0,29.91,SSW,205,0.0,5.0,92,0.36,,,0.60,,2013-08-09 21:33:00,
2013-08-09 17:43:00,79.0,76.0,29.91,SSW,205,0.0,5.0,92,0.36,,,0.60,,2013-08-09 21:43:00,
2013-08-09 17:52:00,82.0,78.0,29.91,SW,214,5.0,6.0,88,0.00,,,0.60,,2013-08-09 21:52:00,
2013-08-09 18:02:00,82.0,78.0,29.91,SW,214,5.0,6.0,88,0.00,,,0.60,,2013-08-09 22:02:00,
2013-08-09 18:11:00,82.0,78.0,29.91,SW,214,5.0,6.0,88,0.00,,,0.60,,2013-08-09 22:11:00,
2013-08-09 18:22:00,83.0,77.0,29.91,SSW,195,0.0,6.0,83,0.00,,,0.60,,2013-08-09 22:22:00,
2013-08-09 18:32:00,83.0,77.0,29.91,SSW,195,0.0,6.0,83,0.00,,,0.60,,2013-08-09 22:32:00,
2013-08-09 18:43:00,83.0,77.0,29.91,SSW,195,0.0,6.0,83,0.00,,,0.60,,2013-08-09 22:43:00,
2013-08-09 18:52:00,80.0,76.0,29.91,NE,34,0.0,8.0,89,0.03,,,0.63,,2013-08-09 22:52:00,
2013-08-09 19:02:00,80.0,76.0,29.91,NE,34,0.0,8.0,89,0.03,,,0.63,,2013-08-09 23:02:00,
2013-08-09 19:11:00,80.0,76.0,29.91,NE,34,0.0,8.0,89,0.03,,,0.63,,2013-08-09 23:11:00,
2013-08-09 19:22:00,79.0,75.0,29.92,SSE,165,0.0,1.0,89,0.03,,,0.63,,2013-08-09 23:22:00,
2013-08-09 19:32:00,79.0,75.0,29.92,SSE,165,0.0,1.0,89,0.03,,,0.63,,2013-08-09 23:32:00,
2013-08-09 19:43:00,79.0,75.0,29.92,SSE,165,0.0,1.0,89,0.03,,,0.63,,2013-08-09 23:43:00,
2013-08-09 19:52:00,78.0,75.0,29.93,SSE,166,0.0,0.0,92,0.00,,,0.63,,2013-08-09 23:52:00,
2013-08-09 20:01:00,78.0,75.0,29.93,SSE,166,0.0,0.0,92,0.00,,,0.63,,2013-08-10 00:01:00,
2013-08-09 20:22:00,76.0,74.0,29.94,SSE,165,0.0,0.0,95,0.00,,,0.63,,2013-08-10 00:22:00,
2013-08-09 20:33:00,76.0,74.0,29.94,SSE,165,0.0,0.0,95,0.00,,,0.63,,2013-08-10 00:33:00,
2013-08-09 20:43:00,76.0,74.0,29.94,SSE,165,0.0,0.0,95,0.00,,,0.63,,2013-08-10 00:43:00,
2013-08-09 21:02:00,74.0,73.0,29.94,SSE,163,0.0,0.0,96,0.00,,,0.63,,2013-08-10 01:02:00,
2013-08-09 21:11:00,74.0,73.0,29.94,SSE,163,0.0,0.0,96,0.00,,,0.63,,2013-08-10 01:11:00,
2013-08-09 21:22:00,74.0,73.0,29.94,SSE,163,0.0,0.0,96,0.00,,,0.63,,2013-08-10 01:22:00,
2013-08-09 21:32:00,74.0,73.0,29.94,SSE,163,0.0,0.0,96,0.00,,,0.63,,2013-08-10 01:32:00,
2013-08-09 22:11:00,71.0,70.0,29.96,SSE,166,0.0,0.0,98,0.00,,,0.63,,2013-08-10 02:11:00,
2013-08-09 22:21:00,71.0,70.0,29.96,SSE,166,0.0,0.0,98,0.00,,,0.63,,2013-08-10 02:21:00,
2013-08-09 22:32:00,71.0,70.0,29.96,SSE,166,0.0,0.0,98,0.00,,,0.63,,2013-08-10 02:32:00,
2013-08-09 22:42:00,71.0,70.0,29.96,SSE,166,0.0,0.0,98,0.00,,,0.63,,2013-08-10 02:42:00,
2013-08-09 22:52:00,71.0,70.0,29.96,SSE,166,0.0,0.0,98,0.00,,,0.63,,2013-08-10 02:52:00,
2013-08-09 23:42:00,71.0,71.0,29.98,SSE,165,0.0,0.0,100,0.00,,,0.61,,2013-08-10 03:42:00,
2013-08-09 23:52:00,71.0,71.0,29.98,SSE,165,0.0,0.0,100,0.00,,,0.61,,2013-08-10 03:52:00,